カタログに戻る

STARLINK-34833

運用中通信VLEO
NORAD 65218·PAYLOAD·🇺🇸 United States

打ち上げ Aug 14, 2025 から Cape Canaveral Space Force Station

Loading…

次のパス (今後24時間)

TLE

最新Source: CelesTrak SupGP

元期: Sep 15, 2026, 03:16 UTC

1 65218C 25176W   26258.13659722  .00073497  00000+0  21714-2 0  2585
2 65218  53.1593 348.9242 0001122  92.6132 129.3184 15.34355912    18

AllMySatでSTARLINK-34833をリアルタイム追跡

Download on the App Store